Weather History for Newport, RI

Change the Weather History Date:

Wednesday, November 20, 2013

  Actual Average Record
Temperature  
Mean Temperature 34 °F -  
Max Temperature 41 °F 51 °F 63 °F (1975)
Min Temperature 28 °F 37 °F 21 °F (1986)
Degree Days  
Heating Degree Days 30    
Moisture  
Dew Point 14 °F    
Average Humidity 47    
Maximum Humidity 56    
Minimum Humidity 29    
Precipitation  
Precipitation 0.00 in - - ()
Sea Level Pressure  
Sea Level Pressure 30.49 in    
Wind  
Wind Speed 12 mph (North)    
Max Wind Speed 17 mph    
Max Gust Speed 25 mph    
Visibility 10 miles    
Events      
Averages and records for this station are not official NWS values.
T = Trace of Precipitation, MM = Missing Value Source: NWS Daily Summary

Daily Weather History Graph

Daily Weather History Graph

Search for Another Location

Airport:

Trip Planner

Search our weather history database for the weather conditions in past years. The results will help you decide how hot, cold, wet, or windy it might be!

Date:

Astronomy

Nov. 20, 2013 Rise Set
Actual Time 6:40 AM EST 4:21 PM EST
Civil Twilight 6:09 AM EST 4:51 PM EST
Nautical Twilight 5:36 AM EST 5:25 PM EST
Astronomical Twilight 5:03 AM EST 5:58 PM EST
Moon 7:01 PM EST (11/20) 9:03 AM EST (11/20)
Length of Visible Light 10h 41m
Length of Day
9h 41m
Waning Gibbous, 91% of the Moon is Illuminated
Nov 20
Waning Gibbous
Nov 25
Last Quarter
Dec 2
New
Dec 9
First Quarter
Dec 17
Full

Hourly Weather History & Observations

Time (EST) Temp. Windchill Dew Point Humidity Pressure Visibility Wind Dir Wind Speed Gust Speed Precip Events Conditions
12:53 AM 32.0 °F 21.2 °F 16.0 °F 52% 30.30 in 10.0 mi NNW 16.1 mph 25.3 mph N/A   Clear
1:53 AM 30.9 °F 20.2 °F 16.0 °F 54% 30.32 in 10.0 mi NNW 15.0 mph 21.9 mph N/A   Clear
2:53 AM 30.0 °F 19.1 °F 15.1 °F 54% 30.34 in 10.0 mi NNW 15.0 mph 24.2 mph N/A   Clear
3:53 AM 30.0 °F 18.3 °F 14.0 °F 51% 30.36 in 10.0 mi NNW 17.3 mph 25.3 mph N/A   Clear
4:53 AM 28.9 °F 18.2 °F 14.0 °F 54% 30.38 in 10.0 mi NNW 13.8 mph 25.3 mph N/A   Clear
5:53 AM 28.9 °F 19.2 °F 15.1 °F 56% 30.41 in 10.0 mi North 11.5 mph 24.2 mph N/A   Clear
6:53 AM 28.9 °F 18.6 °F 15.1 °F 56% 30.45 in 10.0 mi NNW 12.7 mph 24.2 mph N/A   Clear
7:53 AM 30.9 °F 19.8 °F 15.1 °F 52% 30.48 in 10.0 mi North 16.1 mph 20.7 mph N/A   Clear
8:53 AM 32.0 °F 21.6 °F 16.0 °F 52% 30.51 in 10.0 mi North 15.0 mph 20.7 mph N/A   Clear
9:53 AM 34.0 °F 25.0 °F 16.0 °F 48% 30.53 in 10.0 mi North 12.7 mph - N/A   Clear
10:53 AM 36.0 °F 28.0 °F 12.9 °F 39% 30.52 in 10.0 mi North 11.5 mph - N/A   Clear
11:53 AM 37.9 °F 30.5 °F 12.9 °F 36% 30.51 in 10.0 mi North 11.5 mph - N/A   Clear
12:53 PM 39.0 °F 31.8 °F 12.0 °F 33% 30.51 in 10.0 mi NNW 11.5 mph - N/A   Clear
1:53 PM 39.0 °F 33.4 °F 10.9 °F 32% 30.51 in 10.0 mi NNW 8.1 mph - N/A   Clear
2:53 PM 41.0 °F 34.7 °F 10.9 °F 29% 30.52 in 10.0 mi North 10.4 mph - N/A   Clear
3:53 PM 39.0 °F 34.8 °F 10.0 °F 30% 30.53 in 10.0 mi North 5.8 mph - N/A   Clear
4:53 PM 35.1 °F 32.2 °F 12.0 °F 39% 30.55 in 10.0 mi North 3.5 mph - N/A   Clear
5:53 PM 30.9 °F 26.2 °F 12.9 °F 47% 30.57 in 10.0 mi NNE 4.6 mph - N/A   Clear
6:53 PM 30.0 °F 26.5 °F 12.9 °F 49% 30.58 in 10.0 mi NNE 3.5 mph - N/A   Clear
7:53 PM 30.0 °F 22.4 °F 12.9 °F 49% 30.58 in 10.0 mi NNE 8.1 mph - N/A   Clear
8:53 PM 33.1 °F 28.7 °F 14.0 °F 46% 30.59 in 10.0 mi NNE 4.6 mph - N/A   Clear
9:53 PM 32.0 °F 25.6 °F 15.1 °F 50% 30.59 in 10.0 mi NNE 6.9 mph - N/A   Clear
10:53 PM 30.0 °F - 15.1 °F 54% 30.61 in 10.0 mi Calm Calm - N/A   Clear
11:53 PM 30.0 °F 23.2 °F 16.0 °F 56% 30.61 in 10.0 mi NNE 6.9 mph - N/A   Clear